sat.trackr.live / text

‹ back to catalog

PROPCUBE 1 (FLORA)

NORAD 40976 · 2015-058N

PAYLOAD ACTIVE UNKNOWN

§ Identity

Operator
Country
US
Launch date
2015-10-08
Launch site
AFWTR
Launch vehicle
Mass (kg)
RCS (m²)

Purposes: tech_demo

External: N2YO · Heavens-Above · Gunter

§ Orbital elements

Epoch: 2026-05-25T02:15:24.846048Z

Period
96.70 min
Inclination
64.7761°
Eccentricity
0.0129954
Mean motion
14.89072710 rev/d
Perigee alt
510.1 km
Apogee alt
691.5 km
Semi-major
6,979.0 km
B*
2.6832e-4
RAAN
6.8014°
Arg perigee
69.9714°
Mean anomaly
291.5333°
Rev number
11,282

§ Raw data

PROPCUBE 1 (FLORA)1 40976U 15058N   26145.09403757  .00002796  00000+0  26832-3 0  99952 40976  64.7761   6.8014 0129954  69.9714 291.5333 14.89072710112823

JSON: /api/v1/satellites/40976 · /tle

For live sub-satellite position, see the globe view (requires WebGL).

§ Visibility from observer

Set your observer location to see the next 7 days of passes ≥ 10°. The values pass through the URL so the page stays shareable.

No JS? Fill the form by hand. The geolocation button needs JavaScript.